Weather History for Wichita Jabara, KS

Change the Weather History Date:

Saturday, October 27, 2012

  Actual Average (KICT) Record (KICT)
Temperature  
Mean Temperature 37 °F 54 °F  
Max Temperature 48 °F 66 °F 86 °F (1922)
Min Temperature 26 °F 43 °F 23 °F (1957)
Degree Days  
Heating Degree Days 28 11  
Month to date heating degree days 195  
Since 1 July heating degree days 238  
Cooling Degree Days 0 0  
Month to date cooling degree days 35  
Year to date cooling degree days 1684  
Growing Degree Days 0 (Base 50)    
Moisture  
Dew Point 24 °F    
Average Humidity 63    
Maximum Humidity 88    
Minimum Humidity 38    
Precipitation  
Precipitation 0.00 in 0.07 in 1.09 in (2002)
Month to date precipitation 2.50  
Year to date precipitation 29.73  
Snow  
Snow 0.00 in 0.00 in 0.00 in (2007)
Month to date snowfall 0.1  
Since 1 July snowfall 0.1  
Since 1 September snowfall 0.1  
Snow Depth -    
Sea Level Pressure  
Sea Level Pressure 30.35 in    
Wind  
Wind Speed 5 mph (NE)    
Max Wind Speed 8 mph    
Max Gust Speed -    
Visibility 10 miles    
Events      
T = Trace of Precipitation, MM = Missing Value Source: NWS Daily Summary

Daily Weather History Graph

Daily Weather History Graph

Search for Another Location

Airport:

Trip Planner

Search our weather history database for the weather conditions in past years. The results will help you decide how hot, cold, wet, or windy it might be!

Date:

Astronomy

Oct. 27, 2012 Rise Set
Actual Time 7:49 AM CDT 6:35 PM CDT
Civil Twilight 7:22 AM CDT 7:02 PM CDT
Nautical Twilight 6:51 AM CDT 7:32 PM CDT
Astronomical Twilight 6:21 AM CDT 8:03 PM CDT
Moon 5:20 PM CDT (10/27) 5:47 AM CDT (10/27)
Length of Visible Light 11h 39m
Length of Day
10h 45m
Waxing Gibbous, 96% of the Moon is Illuminated
Oct 27
Waxing Gibbous
Oct 29
Full
Nov 6
Last Quarter
Nov 13
New
Nov 20
First Quarter

Hourly Weather History & Observations

Time (CDT) Temp. Windchill Dew Point Humidity Pressure Visibility Wind Dir Wind Speed Gust Speed Precip Events Conditions
12:54 AM 30.0 °F 23.2 °F 23.0 °F 75% 30.43 in 10.0 mi North 6.9 mph - N/A   Clear
1:54 AM 28.9 °F 22.8 °F 23.0 °F 78% 30.43 in 10.0 mi NNW 5.8 mph - N/A   Clear
2:54 AM 26.1 °F 17.6 °F 21.9 °F 84% 30.42 in 10.0 mi North 8.1 mph - N/A   Clear
3:54 AM 26.1 °F 19.4 °F 23.0 °F 88% 30.40 in 10.0 mi NNE 5.8 mph - N/A   Clear
4:54 AM 26.1 °F - 21.9 °F 84% 30.39 in 10.0 mi Calm Calm - N/A   Clear
5:54 AM 27.0 °F 23.0 °F 21.9 °F 81% 30.41 in 10.0 mi North 3.5 mph - N/A   Clear
6:54 AM 26.1 °F 19.4 °F 21.9 °F 84% 30.42 in 10.0 mi NNE 5.8 mph - N/A   Clear
7:54 AM 26.1 °F 19.4 °F 21.9 °F 84% 30.44 in 10.0 mi NNW 5.8 mph - N/A   Clear
9:54 AM 36.0 °F 29.6 °F 28.0 °F 73% 30.44 in 10.0 mi East 8.1 mph - N/A   Clear
10:54 AM 39.0 °F 34.0 °F 28.0 °F 65% 30.41 in 10.0 mi ESE 6.9 mph - N/A   Clear
11:54 AM 42.1 °F - 27.0 °F 55% 30.40 in 10.0 mi Calm Calm - N/A   Clear
1:54 PM 46.9 °F - 26.1 °F 44% 30.32 in 10.0 mi Variable 4.6 mph - N/A   Clear
2:54 PM 48.0 °F - 25.0 °F 41% 30.29 in 10.0 mi ESE 6.9 mph - N/A   Clear
3:54 PM 48.9 °F - 24.1 °F 38% 30.27 in 10.0 mi Variable 3.5 mph - N/A   Partly Cloudy
4:54 PM 48.0 °F - 24.1 °F 39% 30.26 in 10.0 mi SSE 3.5 mph - N/A   Overcast
5:54 PM 46.9 °F - 24.1 °F 41% 30.25 in 10.0 mi ESE 3.5 mph - N/A   Overcast
6:54 PM 46.0 °F - 24.1 °F 42% 30.26 in 10.0 mi Calm Calm - N/A   Overcast
7:54 PM 45.0 °F - 23.0 °F 42% 30.28 in 10.0 mi Calm Calm - N/A   Overcast
8:54 PM 43.0 °F - 25.0 °F 49% 30.29 in 10.0 mi Calm Calm - N/A   Mostly Cloudy
9:54 PM 37.9 °F - 26.1 °F 62% 30.30 in 10.0 mi Calm Calm - N/A   Clear
10:54 PM 37.0 °F 34.5 °F 26.1 °F 65% 30.30 in 10.0 mi East 3.5 mph - N/A   Clear
11:54 PM 37.0 °F - 25.0 °F 62% 30.30 in 10.0 mi Calm Calm - N/A   Clear